contact:dominique.lefevre@mio.osupytheas.fr, maurice.libes@osupytheas.fr, didier.mallarino@osupytheas.fr
Project:EMSO http://www.emso-fr.org/EMSO-France
Depth: 2436.0 m
Title:EMSO Ligure Ouest : Data MII capteur AQUADOPP
Date,Latitude,Longitude,X_East,Y_North,Z_Up,Amplitude_X,Amplitude_Y,Amplitude_Z,Batterie,SoundSpeed,Heading,Pitch,Roll,Pressure,TIS,Speed,Direction
, degrees North, degrees East, m.s-1, m.s-1,m.s-1, 1, 1, 1, Volt, m.s-1, degree, degree, degree, dbar, degree_C, m.s-1, degree
2021-04-07T00:04:02,42.805,6.029,-0.034,-0.007,-0.009,103.0,103.0,102.0,13.4,1505.2,324.1,-0.8,1.8,2469.626,13.28,0.034,258.4
2021-04-07T00:07:03,42.805,6.029,-0.017,-0.025,-0.006,102.0,104.0,101.0,13.4,1505.2,324.6,-0.8,1.8,2469.556,13.29,0.03,214.2
2021-04-07T00:10:03,42.805,6.029,0.0,-0.024,0.004,103.0,103.0,101.0,13.4,1505.2,323.8,-0.8,1.8,2469.548,13.29,0.024,180.0
2021-04-07T00:13:03,42.805,6.029,-0.003,-0.018,0.007,102.0,104.0,102.0,13.3,1505.2,326.6,-0.7,1.8,2469.542,13.29,0.018,189.5
2021-04-07T00:16:03,42.805,6.029,0.004,-0.026,-0.002,103.0,102.0,100.0,13.4,1505.2,323.7,-0.7,1.8,2469.526,13.29,0.026,171.3
2021-04-07T00:19:03,42.805,6.029,0.009,-0.022,0.011,105.0,105.0,103.0,13.3,1505.2,324.1,-0.7,1.8,2469.519,13.29,0.023,157.8
2021-04-07T00:22:03,42.805,6.029,-0.006,-0.027,-0.021,101.0,103.0,101.0,13.3,1505.2,326.4,-0.7,1.8,2469.49,13.3,0.027,192.5
2021-04-07T00:25:03,42.805,6.029,-0.019,-0.03,0.006,106.0,101.0,101.0,13.3,1505.2,323.4,-0.7,1.8,2469.527,13.3,0.035,212.3
2021-04-07T00:28:03,42.805,6.029,-0.008,-0.032,0.011,104.0,102.0,100.0,13.4,1505.2,323.4,-0.8,1.8,2469.5,13.29,0.032,194.0
2021-04-07T00:31:03,42.805,6.029,-0.015,-0.022,-0.016,101.0,103.0,103.0,13.4,1505.2,325.7,-0.7,1.8,2469.492,13.29,0.026,214.3
2021-04-07T00:34:03,42.805,6.029,-0.006,0.005,0.005,100.0,104.0,102.0,13.3,1505.2,323.8,-0.8,1.8,2469.468,13.29,0.007,309.8
2021-04-07T00:37:03,42.805,6.029,0.001,-0.005,0.031,102.0,103.0,102.0,13.4,1505.2,324.3,-0.8,1.8,2469.489,13.29,0.005,168.7
2021-04-07T00:40:03,42.805,6.029,0.002,-0.014,0.031,101.0,102.0,102.0,13.4,1505.2,324.1,-0.7,1.8,2469.46,13.3,0.014,171.9
2021-04-07T00:43:03,42.805,6.029,0.003,-0.01,-0.027,103.0,102.0,103.0,13.4,1505.2,324.5,-0.8,1.8,2469.489,13.29,0.01,163.3
2021-04-07T00:46:03,42.805,6.029,-0.028,-0.023,0.011,103.0,104.0,100.0,13.4,1505.2,325.8,-0.8,1.8,2469.453,13.29,0.036,230.6
2021-04-07T00:49:03,42.805,6.029,-0.024,0.0,0.04,104.0,102.0,101.0,13.3,1505.2,328.5,-0.7,1.8,2469.395,13.29,0.024,270.0
2021-04-07T00:52:03,42.805,6.029,-0.028,0.01,0.017,100.0,102.0,100.0,13.4,1505.2,325.6,-0.8,1.8,2469.421,13.3,0.029,289.6
2021-04-07T00:55:03,42.805,6.029,-0.012,-0.009,-0.003,102.0,103.0,102.0,13.4,1505.2,326.6,-0.7,1.8,2469.412,13.29,0.015,233.1
2021-04-07T00:58:03,42.805,6.029,-0.016,-0.017,0.02,103.0,104.0,101.0,13.4,1505.2,323.6,-0.7,1.8,2469.44,13.29,0.023,223.3
2021-04-07T01:04:03,42.805,6.029,-0.029,-0.008,-0.01,102.0,103.0,101.0,13.4,1505.2,324.5,-0.8,1.9,2469.439,13.29,0.03,254.6
2021-04-07T01:07:03,42.805,6.029,0.004,-0.019,0.035,103.0,103.0,101.0,13.4,1505.2,328.4,-0.8,1.8,2469.452,13.29,0.019,168.1
2021-04-07T01:10:03,42.805,6.029,-0.026,0.002,0.009,102.0,101.0,102.0,13.4,1505.2,327.2,-0.7,1.8,2469.48,13.29,0.026,274.4
2021-04-07T01:13:03,42.805,6.029,-0.01,-0.027,-0.014,103.0,102.0,101.0,13.4,1505.2,324.9,-0.8,1.8,2469.436,13.29,0.028,200.3
2021-04-07T01:16:03,42.805,6.029,-0.019,-0.017,0.009,103.0,103.0,101.0,13.4,1505.2,324.6,-0.8,1.8,2469.484,13.29,0.025,228.2
2021-04-07T01:19:03,42.805,6.029,-0.012,-0.012,0.008,104.0,101.0,101.0,13.4,1505.2,327.3,-0.7,1.8,2469.449,13.3,0.016,225.0
2021-04-07T01:22:03,42.805,6.029,-0.022,0.004,0.029,102.0,102.0,103.0,13.4,1505.2,323.4,-0.8,1.8,2469.473,13.29,0.022,280.3
2021-04-07T01:25:03,42.805,6.029,0.002,-0.027,-0.011,103.0,106.0,102.0,13.4,1505.2,325.9,-0.7,1.8,2469.448,13.29,0.027,175.8
2021-04-07T01:28:03,42.805,6.029,0.006,-0.02,0.006,104.0,104.0,100.0,13.3,1505.2,325.2,-0.7,1.8,2469.451,13.29,0.02,163.3
2021-04-07T01:31:03,42.805,6.029,-0.009,-0.028,0.002,101.0,107.0,101.0,13.4,1505.2,328.1,-0.7,1.8,2469.485,13.29,0.029,197.8
2021-04-07T01:34:03,42.805,6.029,0.007,-0.027,-0.045,103.0,102.0,102.0,13.4,1505.2,328.8,-0.7,1.9,2469.464,13.3,0.027,165.5
2021-04-07T01:37:03,42.805,6.029,-0.014,-0.001,0.014,103.0,103.0,102.0,13.4,1505.2,327.9,-0.7,1.8,2469.459,13.3,0.014,265.9
2021-04-07T01:40:03,42.805,6.029,-0.01,-0.016,-0.008,102.0,105.0,100.0,13.4,1505.2,325.8,-0.7,1.8,2469.483,13.29,0.018,212.0
2021-04-07T01:43:03,42.805,6.029,-0.013,-0.022,0.008,104.0,105.0,102.0,13.4,1505.2,326.1,-0.8,1.8,2469.466,13.29,0.025,210.6
2021-04-07T01:46:03,42.805,6.029,-0.017,-0.029,0.004,101.0,101.0,102.0,13.4,1505.2,323.4,-0.8,1.8,2469.47,13.29,0.033,210.4
2021-04-07T01:49:03,42.805,6.029,-0.026,-0.014,-0.009,103.0,100.0,101.0,13.3,1505.2,324.1,-0.7,1.8,2469.448,13.29,0.029,241.7
2021-04-07T01:52:03,42.805,6.029,-0.004,-0.001,0.026,103.0,101.0,102.0,13.4,1505.2,326.2,-0.8,1.8,2469.473,13.3,0.004,256.0
2021-04-07T01:55:03,42.805,6.029,-0.013,-0.008,-0.017,102.0,105.0,102.0,13.4,1505.2,324.9,-0.8,1.8,2469.493,13.3,0.015,238.4
2021-04-07T01:58:03,42.805,6.029,-0.009,-0.008,0.006,104.0,102.0,101.0,13.3,1505.2,325.7,-0.7,1.8,2469.474,13.29,0.012,228.4
2021-04-07T02:04:03,42.805,6.029,-0.012,-0.011,0.014,104.0,103.0,101.0,13.3,1505.2,327.6,-0.8,1.8,2469.518,13.29,0.016,227.5
2021-04-07T02:07:03,42.805,6.029,-0.017,0.0,0.0,104.0,104.0,102.0,13.4,1505.2,327.2,-0.8,1.8,2469.545,13.29,0.017,270.0
2021-04-07T02:10:03,42.805,6.029,-0.001,-0.017,-0.002,103.0,102.0,101.0,13.4,1505.2,323.6,-0.8,1.8,2469.563,13.29,0.017,183.4
2021-04-07T02:13:03,42.805,6.029,0.005,-0.003,0.037,103.0,103.0,102.0,13.3,1505.2,324.8,-0.8,1.8,2469.597,13.29,0.005,121.0
2021-04-07T02:16:03,42.805,6.029,0.004,-0.02,0.015,103.0,101.0,102.0,13.4,1505.2,323.9,-0.7,1.8,2469.636,13.29,0.02,168.7
2021-04-07T02:19:03,42.805,6.029,-0.009,-0.007,0.002,103.0,103.0,103.0,13.3,1505.2,326.2,-0.7,1.8,2469.663,13.29,0.011,232.1
2021-04-07T02:22:03,42.805,6.029,-0.016,-0.003,0.028,103.0,104.0,100.0,13.4,1505.2,327.6,-0.8,1.8,2469.698,13.29,0.016,259.4
2021-04-07T02:25:03,42.805,6.029,-0.023,-0.03,0.0,104.0,102.0,101.0,13.3,1505.2,325.1,-0.7,1.8,2469.688,13.29,0.037,217.5
2021-04-07T02:28:03,42.805,6.029,-0.003,-0.021,-0.018,105.0,101.0,100.0,13.4,1505.2,326.3,-0.8,1.8,2469.65,13.3,0.021,188.1
2021-04-07T02:31:03,42.805,6.029,-0.018,-0.004,-0.003,103.0,103.0,102.0,13.4,1505.2,324.9,-0.8,1.9,2469.653,13.3,0.018,257.5
2021-04-07T02:34:03,42.805,6.029,-0.003,-0.011,-0.02,102.0,102.0,102.0,13.4,1505.2,326.5,-0.8,1.9,2469.603,13.3,0.011,195.3
2021-04-07T02:37:03,42.805,6.029,-0.007,-0.018,0.021,102.0,103.0,103.0,13.4,1505.2,325.1,-0.8,1.8,2469.559,13.3,0.019,201.2
2021-04-07T02:40:03,42.805,6.029,-0.012,-0.016,-0.006,102.0,100.0,101.0,13.4,1505.2,324.8,-0.8,1.8,2469.524,13.3,0.02,216.9
2021-04-07T02:43:03,42.805,6.029,0.0,-0.019,-0.018,103.0,102.0,101.0,13.4,1505.2,323.5,-0.7,1.8,2469.543,13.3,0.019,180.0
2021-04-07T02:46:03,42.805,6.029,-0.004,-0.018,0.003,104.0,104.0,102.0,13.4,1505.2,324.1,-0.7,1.8,2469.53,13.29,0.018,192.5
2021-04-07T02:49:03,42.805,6.029,-0.045,-0.01,-0.013,103.0,102.0,101.0,13.4,1505.2,326.4,-0.8,1.8,2469.552,13.29,0.046,257.5
2021-04-07T02:52:03,42.805,6.029,-0.028,-0.01,0.013,101.0,103.0,100.0,13.3,1505.2,327.5,-0.8,1.8,2469.587,13.29,0.029,250.4
2021-04-07T02:55:03,42.805,6.029,-0.022,0.004,-0.015,102.0,104.0,102.0,13.4,1505.2,325.3,-0.8,1.8,2469.57,13.29,0.022,280.3
2021-04-07T02:58:03,42.805,6.029,-0.009,-0.017,-0.014,103.0,104.0,103.0,13.4,1505.2,327.3,-0.8,1.8,2469.569,13.29,0.019,207.9
2021-04-07T03:04:03,42.805,6.029,-0.027,-0.012,0.011,105.0,106.0,102.0,13.4,1505.2,327.0,-0.7,1.9,2469.602,13.29,0.029,246.0
2021-04-07T03:07:03,42.805,6.029,0.004,-0.007,-0.003,103.0,105.0,101.0,13.4,1505.2,323.8,-0.7,1.8,2469.582,13.29,0.008,150.3
2021-04-07T03:10:03,42.805,6.029,-0.012,-0.015,-0.012,101.0,104.0,102.0,13.4,1505.2,324.0,-0.7,1.8,2469.601,13.29,0.019,218.7
2021-04-07T03:13:03,42.805,6.029,-0.018,-0.021,-0.007,103.0,106.0,101.0,13.4,1505.2,324.4,-0.7,1.8,2469.554,13.29,0.027,220.6
2021-04-07T03:16:03,42.805,6.029,0.009,-0.004,0.014,103.0,102.0,103.0,13.4,1505.2,326.0,-0.8,1.8,2469.544,13.29,0.009,114.0
2021-04-07T03:19:03,42.805,6.029,-0.026,-0.022,-0.013,102.0,103.0,101.0,13.4,1505.2,326.7,-0.8,1.8,2469.544,13.29,0.034,229.8
2021-04-07T03:22:03,42.805,6.029,-0.001,0.0,0.0,104.0,101.0,102.0,13.4,1505.2,324.9,-0.8,1.8,2469.466,13.29,0.001,270.0
2021-04-07T03:25:03,42.805,6.029,-0.008,-0.016,-0.024,104.0,103.0,103.0,13.4,1505.2,324.7,-0.7,1.8,2469.507,13.29,0.017,206.6
2021-04-07T03:28:03,42.805,6.029,0.0,-0.011,0.007,105.0,102.0,102.0,13.4,1505.2,327.5,-0.7,1.9,2469.444,13.29,0.011,180.0
2021-04-07T03:31:03,42.805,6.029,-0.015,0.001,-0.001,103.0,104.0,102.0,13.4,1505.2,326.9,-0.8,1.8,2469.444,13.29,0.015,273.8
2021-04-07T03:34:03,42.805,6.029,-0.027,0.011,0.004,104.0,104.0,103.0,13.4,1505.2,327.0,-0.7,1.8,2469.39,13.29,0.029,292.2
2021-04-07T03:37:03,42.805,6.029,-0.02,-0.008,-0.013,104.0,104.0,102.0,13.4,1505.2,325.5,-0.7,1.8,2469.378,13.29,0.021,248.2
2021-04-07T03:40:03,42.805,6.029,-0.011,-0.018,-0.003,104.0,103.0,102.0,13.4,1505.2,326.0,-0.7,1.8,2469.397,13.29,0.021,211.4
2021-04-07T03:43:03,42.805,6.029,-0.015,-0.016,0.013,104.0,105.0,101.0,13.3,1505.2,324.6,-0.7,1.8,2469.377,13.29,0.021,223.1
2021-04-07T03:46:03,42.805,6.029,-0.002,0.004,-0.021,104.0,105.0,102.0,13.3,1505.2,327.0,-0.7,1.8,2469.398,13.29,0.004,333.4
2021-04-07T03:49:03,42.805,6.029,-0.009,0.01,0.017,105.0,104.0,102.0,13.4,1505.2,324.8,-0.7,1.8,2469.324,13.29,0.013,318.0
2021-04-07T03:52:03,42.805,6.029,-0.013,0.008,-0.019,105.0,104.0,103.0,13.4,1505.2,327.0,-0.8,1.8,2469.328,13.29,0.015,301.6
2021-04-07T03:55:03,42.805,6.029,0.016,-0.009,0.004,103.0,102.0,103.0,13.3,1505.2,328.8,-0.8,1.8,2469.288,13.29,0.018,119.4
2021-04-07T03:58:03,42.805,6.029,-0.008,-0.017,0.019,102.0,102.0,103.0,13.4,1505.2,325.1,-0.8,1.8,2469.3,13.29,0.018,205.2
2021-04-07T04:04:03,42.805,6.029,0.001,-0.009,-0.027,103.0,103.0,102.0,13.4,1505.2,328.3,-0.8,1.8,2469.183,13.29,0.009,173.7
2021-04-07T04:07:03,42.805,6.029,-0.012,-0.019,-0.012,105.0,103.0,103.0,13.4,1505.2,329.1,-0.8,1.9,2469.188,13.29,0.022,212.3
2021-04-07T04:10:03,42.805,6.029,0.016,-0.003,0.001,103.0,103.0,104.0,13.3,1505.2,325.6,-0.8,1.8,2469.213,13.29,0.016,100.6
2021-04-07T04:13:03,42.805,6.029,-0.013,-0.01,0.022,106.0,103.0,104.0,13.3,1505.2,325.1,-0.8,1.8,2469.22,13.29,0.016,232.4
2021-04-07T04:16:03,42.805,6.029,-0.018,-0.017,0.028,103.0,104.0,101.0,13.4,1505.2,327.4,-0.8,1.8,2469.196,13.29,0.024,226.6
2021-04-07T04:19:03,42.805,6.029,-0.009,-0.015,0.0,104.0,106.0,101.0,13.3,1505.2,323.7,-0.8,1.8,2469.232,13.29,0.017,211.0
2021-04-07T04:22:03,42.805,6.029,-0.01,-0.004,0.01,104.0,105.0,102.0,13.4,1505.2,323.8,-0.7,1.8,2469.231,13.29,0.01,248.2
2021-04-07T04:25:03,42.805,6.029,0.0,-0.038,-0.02,102.0,103.0,103.0,13.3,1505.2,326.8,-0.8,1.8,2469.239,13.29,0.038,180.0
2021-04-07T04:28:03,42.805,6.029,0.004,0.01,0.034,106.0,103.0,105.0,13.4,1505.2,325.4,-0.7,1.8,2469.289,13.29,0.01,21.8
2021-04-07T04:31:03,42.805,6.029,-0.013,0.004,0.01,104.0,105.0,102.0,13.4,1505.2,327.1,-0.7,1.8,2469.334,13.29,0.013,287.1
2021-04-07T04:34:03,42.805,6.029,0.002,-0.007,0.011,107.0,105.0,103.0,13.4,1505.2,323.8,-0.8,1.8,2469.338,13.29,0.007,164.1
2021-04-07T04:37:03,42.805,6.029,-0.023,0.002,0.008,105.0,106.0,101.0,13.3,1505.2,323.4,-0.7,1.8,2469.351,13.29,0.023,275.0
2021-04-07T04:40:03,42.805,6.029,-0.012,-0.015,0.03,105.0,103.0,103.0,13.4,1505.2,328.1,-0.8,1.8,2469.381,13.29,0.019,218.7
2021-04-07T04:43:03,42.805,6.029,-0.03,-0.013,-0.012,103.0,103.0,102.0,13.3,1505.2,328.1,-0.8,1.8,2469.39,13.29,0.032,246.6
2021-04-07T04:46:03,42.805,6.029,0.0,0.009,0.015,104.0,103.0,101.0,13.3,1505.2,328.7,-0.7,1.8,2469.411,13.29,0.009,0.0
2021-04-07T04:49:03,42.805,6.029,-0.025,-0.018,-0.019,105.0,105.0,102.0,13.3,1505.2,327.8,-0.8,1.8,2469.389,13.29,0.03,234.2
2021-04-07T04:52:03,42.805,6.029,-0.006,-0.002,0.017,103.0,105.0,103.0,13.4,1505.2,327.3,-0.7,1.8,2469.383,13.29,0.006,251.6
2021-04-07T04:55:03,42.805,6.029,-0.018,-0.006,0.014,105.0,104.0,102.0,13.4,1505.2,323.6,-0.8,1.8,2469.37,13.29,0.018,251.6
2021-04-07T04:58:03,42.805,6.029,-0.038,-0.005,0.008,103.0,106.0,102.0,13.3,1505.2,329.1,-0.8,1.8,2469.318,13.29,0.038,262.5
2021-04-07T05:04:03,42.805,6.029,-0.004,-0.008,0.026,102.0,103.0,101.0,13.4,1505.2,325.0,-0.8,1.9,2469.32,13.29,0.008,206.6
2021-04-07T05:07:03,42.805,6.029,0.012,-0.028,-0.002,104.0,106.0,102.0,13.3,1505.2,324.5,-0.8,1.8,2469.238,13.29,0.03,156.8
2021-04-07T05:10:03,42.805,6.029,-0.012,-0.008,-0.008,104.0,103.0,102.0,13.4,1505.2,325.2,-0.8,1.8,2469.089,13.29,0.014,236.3
2021-04-07T05:13:03,42.805,6.029,-0.017,-0.012,0.015,103.0,103.0,102.0,13.3,1505.2,326.1,-0.7,1.8,2469.151,13.29,0.02,234.8
2021-04-07T05:16:03,42.805,6.029,-0.006,-0.013,-0.008,103.0,104.0,102.0,13.4,1505.2,326.7,-0.7,1.8,2469.193,13.29,0.014,204.8
2021-04-07T05:19:03,42.805,6.029,-0.021,-0.009,0.011,104.0,105.0,101.0,13.4,1505.2,325.6,-0.8,1.8,2469.225,13.29,0.022,246.8
2021-04-07T05:22:03,42.805,6.029,0.003,0.013,0.009,103.0,104.0,102.0,13.3,1505.2,326.0,-0.8,1.9,2469.183,13.29,0.013,13.0
2021-04-07T05:25:03,42.805,6.029,-0.002,-0.023,-0.008,104.0,104.0,102.0,13.4,1505.2,324.3,-0.8,1.8,2469.192,13.29,0.023,185.0
2021-04-07T05:28:03,42.805,6.029,-0.013,0.002,0.004,104.0,103.0,102.0,13.4,1505.2,327.6,-0.8,1.8,2469.247,13.29,0.013,278.7
2021-04-07T05:31:03,42.805,6.029,-0.01,-0.013,0.001,104.0,105.0,102.0,13.4,1505.2,328.0,-0.7,1.8,2469.182,13.29,0.016,217.6
2021-04-07T05:34:03,42.805,6.029,-0.023,-0.016,0.034,103.0,104.0,101.0,13.4,1505.2,328.2,-0.7,1.9,2469.155,13.29,0.028,235.2
2021-04-07T05:37:03,42.805,6.029,-0.025,-0.021,-0.004,106.0,104.0,102.0,13.4,1505.2,327.0,-0.8,1.8,2469.169,13.29,0.032,230.0
2021-04-07T05:40:03,42.805,6.029,-0.018,-0.015,0.009,105.0,103.0,102.0,13.4,1505.2,325.3,-0.8,1.8,2469.127,13.29,0.023,230.2
2021-04-07T05:43:03,42.805,6.029,0.01,-0.019,0.003,104.0,103.0,102.0,13.3,1505.2,327.5,-0.8,1.8,2469.132,13.29,0.021,152.2
2021-04-07T05:46:03,42.805,6.029,-0.003,-0.018,-0.005,103.0,103.0,103.0,13.3,1505.2,324.3,-0.7,1.8,2469.11,13.29,0.018,189.5
2021-04-07T05:49:03,42.805,6.029,0.0,-0.011,-0.002,104.0,103.0,101.0,13.4,1505.2,324.7,-0.8,1.8,2469.108,13.29,0.011,180.0
2021-04-07T05:52:03,42.805,6.029,-0.012,-0.01,-0.022,103.0,102.0,102.0,13.3,1505.2,325.1,-0.8,1.8,2469.13,13.29,0.015,230.2
2021-04-07T05:55:03,42.805,6.029,0.0,0.004,0.009,103.0,102.0,102.0,13.4,1505.2,325.2,-0.8,1.8,2469.103,13.29,0.004,0.0
2021-04-07T05:58:03,42.805,6.029,-0.016,-0.001,0.01,104.0,103.0,101.0,13.4,1505.2,328.2,-0.7,1.9,2469.099,13.29,0.016,266.4
2021-04-07T06:04:03,42.805,6.029,-0.01,-0.017,-0.008,103.0,102.0,100.0,13.4,1505.2,323.5,-0.7,1.8,2469.107,13.29,0.019,210.5
2021-04-07T06:07:03,42.805,6.029,-0.017,0.002,0.034,103.0,106.0,102.0,13.4,1505.2,328.5,-0.8,1.8,2469.135,13.29,0.017,276.7
2021-04-07T06:10:03,42.805,6.029,0.004,-0.028,-0.01,102.0,103.0,101.0,13.3,1505.2,327.7,-0.8,1.8,2469.113,13.29,0.028,171.9
2021-04-07T06:13:03,42.805,6.029,-0.018,-0.008,-0.011,103.0,101.0,101.0,13.4,1505.2,326.7,-0.8,1.8,2469.098,13.29,0.019,246.0
2021-04-07T06:16:03,42.805,6.029,-0.004,-0.01,-0.014,103.0,102.0,101.0,13.4,1505.2,328.3,-0.7,1.8,2469.132,13.29,0.01,201.8
2021-04-07T06:19:03,42.805,6.029,-0.005,-0.018,-0.001,102.0,102.0,102.0,13.3,1505.2,325.9,-0.8,1.8,2469.123,13.29,0.018,195.5
2021-04-07T06:22:03,42.805,6.029,0.002,-0.04,-0.003,104.0,102.0,103.0,13.4,1505.2,326.3,-0.8,1.8,2469.099,13.29,0.04,177.1
2021-04-07T06:25:03,42.805,6.029,-0.011,-0.014,-0.026,101.0,103.0,102.0,13.4,1505.2,327.3,-0.7,1.8,2469.081,13.29,0.017,218.2
2021-04-07T06:28:03,42.805,6.029,-0.015,-0.01,-0.011,105.0,102.0,101.0,13.4,1505.2,327.2,-0.8,1.8,2469.081,13.29,0.018,236.3
2021-04-07T06:31:03,42.805,6.029,-0.025,-0.019,-0.001,104.0,101.0,101.0,13.4,1505.2,323.3,-0.8,1.8,2469.094,13.29,0.031,232.8
2021-04-07T06:34:03,42.805,6.029,-0.007,-0.004,0.004,102.0,102.0,102.0,13.4,1505.2,326.2,-0.7,1.8,2469.104,13.29,0.008,240.3
2021-04-07T06:37:03,42.805,6.029,-0.004,-0.008,0.003,102.0,103.0,102.0,13.4,1505.2,325.7,-0.8,1.8,2469.094,13.29,0.008,206.6
2021-04-07T06:40:03,42.805,6.029,0.0,-0.016,0.005,104.0,102.0,103.0,13.3,1505.2,324.6,-0.8,1.8,2469.102,13.29,0.016,180.0
2021-04-07T06:43:03,42.805,6.029,-0.002,-0.004,0.003,104.0,101.0,103.0,13.3,1505.2,324.9,-0.7,1.8,2469.11,13.29,0.004,206.6
2021-04-07T06:46:03,42.805,6.029,-0.002,-0.008,-0.004,102.0,102.0,103.0,13.4,1505.2,327.7,-0.7,1.8,2469.046,13.29,0.008,194.0
2021-04-07T06:49:03,42.805,6.029,0.001,-0.003,-0.001,103.0,102.0,100.0,13.3,1505.2,327.3,-0.8,1.8,2469.061,13.29,0.003,161.6
2021-04-07T06:52:03,42.805,6.029,-0.016,-0.02,-0.032,103.0,104.0,102.0,13.4,1505.2,323.7,-0.8,1.8,2469.04,13.29,0.025,218.7
2021-04-07T06:55:03,42.805,6.029,-0.017,-0.014,-0.017,104.0,102.0,101.0,13.3,1505.2,324.0,-0.8,1.8,2469.101,13.29,0.022,230.5
2021-04-07T06:58:03,42.805,6.029,-0.007,-0.014,-0.014,104.0,104.0,100.0,13.4,1505.2,325.4,-0.7,1.8,2469.088,13.29,0.015,206.6
2021-04-07T07:04:03,42.805,6.029,-0.016,-0.021,-0.019,102.0,103.0,101.0,13.4,1505.2,326.5,-0.8,1.8,2469.05,13.29,0.026,217.3
2021-04-07T07:07:03,42.805,6.029,-0.018,-0.023,-0.006,101.0,104.0,103.0,13.3,1505.2,325.4,-0.8,1.8,2469.08,13.29,0.029,218.0
2021-04-07T07:10:03,42.805,6.029,-0.025,-0.02,0.005,103.0,104.0,100.0,13.4,1505.2,328.6,-0.8,1.8,2469.123,13.29,0.032,231.3
2021-04-07T07:13:03,42.805,6.029,-0.027,-0.016,-0.006,103.0,103.0,102.0,13.4,1505.2,327.7,-0.7,1.8,2469.065,13.29,0.031,239.3
2021-04-07T07:16:03,42.805,6.029,-0.001,-0.012,0.008,105.0,104.0,102.0,13.4,1505.2,324.0,-0.8,1.8,2469.112,13.29,0.012,184.8
2021-04-07T07:19:03,42.805,6.029,-0.005,-0.009,0.002,103.0,104.0,102.0,13.4,1505.2,325.2,-0.7,1.8,2469.069,13.29,0.01,209.1
2021-04-07T07:22:03,42.805,6.029,0.004,0.0,0.014,105.0,103.0,104.0,13.3,1505.2,328.0,-0.7,1.8,2469.025,13.29,0.004,90.0
2021-04-07T07:25:03,42.805,6.029,0.0,-0.007,-0.008,106.0,103.0,102.0,13.4,1505.2,327.8,-0.8,1.8,2469.046,13.29,0.007,180.0
2021-04-07T07:28:03,42.805,6.029,-0.038,-0.01,0.028,105.0,104.0,102.0,13.3,1505.2,328.3,-0.7,1.8,2469.039,13.29,0.039,255.3
2021-04-07T07:31:03,42.805,6.029,-0.017,-0.028,-0.034,104.0,104.0,102.0,13.4,1505.2,325.8,-0.7,1.8,2469.046,13.29,0.032,211.3
2021-04-07T07:34:03,42.805,6.029,-0.012,0.0,-0.006,104.0,105.0,105.0,13.4,1505.2,325.4,-0.8,1.9,2469.014,13.29,0.012,270.0
2021-04-07T07:37:03,42.805,6.029,0.001,-0.021,0.004,105.0,107.0,102.0,13.4,1505.2,324.9,-0.8,1.8,2469.044,13.29,0.021,177.3
2021-04-07T07:40:03,42.805,6.029,-0.008,-0.008,0.019,106.0,105.0,102.0,13.3,1505.2,325.9,-0.7,1.8,2469.037,13.29,0.011,225.0
2021-04-07T07:43:03,42.805,6.029,-0.009,-0.013,-0.015,104.0,104.0,103.0,13.4,1505.2,326.0,-0.8,1.8,2469.055,13.29,0.015,214.7
2021-04-07T07:46:03,42.805,6.029,-0.023,0.008,0.0,103.0,104.0,101.0,13.3,1505.2,323.6,-0.8,1.8,2469.061,13.29,0.024,289.2
2021-04-07T07:49:03,42.805,6.029,-0.006,-0.009,-0.016,103.0,106.0,102.0,13.4,1505.2,324.4,-0.7,1.8,2469.072,13.29,0.01,213.7
2021-04-07T07:52:03,42.805,6.029,-0.014,-0.006,0.02,103.0,103.0,102.0,13.4,1505.2,329.0,-0.8,1.8,2469.023,13.29,0.015,246.8
2021-04-07T07:55:03,42.805,6.029,0.0,0.0,0.04,102.0,104.0,102.0,13.4,1505.2,327.9,-0.7,1.8,2469.026,13.29,0.0,0.0
2021-04-07T07:58:03,42.805,6.029,-0.003,0.012,0.036,102.0,103.0,102.0,13.4,1505.2,325.0,-0.8,1.8,2468.991,13.29,0.012,346.0
2021-04-07T08:04:03,42.805,6.029,-0.022,-0.009,-0.003,104.0,103.0,102.0,13.4,1505.2,327.5,-0.8,1.8,2469.003,13.29,0.023,247.8
2021-04-07T08:07:03,42.805,6.029,-0.015,-0.018,0.002,103.0,105.0,102.0,13.4,1505.2,323.9,-0.8,1.8,2469.005,13.29,0.023,219.8
2021-04-07T08:10:03,42.805,6.029,0.002,0.005,0.02,103.0,104.0,101.0,13.3,1505.2,324.7,-0.8,1.8,2469.012,13.29,0.005,21.8
2021-04-07T08:13:03,42.805,6.029,-0.032,-0.003,0.0,106.0,104.0,102.0,13.3,1505.2,328.4,-0.8,1.8,2469.031,13.29,0.032,264.6
2021-04-07T08:16:03,42.805,6.029,-0.015,-0.003,-0.01,102.0,103.0,102.0,13.4,1505.2,327.4,-0.7,1.8,2469.003,13.29,0.015,258.7
2021-04-07T08:19:03,42.805,6.029,-0.011,-0.001,0.03,103.0,102.0,102.0,13.4,1505.2,328.8,-0.7,1.8,2469.026,13.29,0.011,264.8
2021-04-07T08:22:03,42.805,6.029,-0.011,0.006,0.024,103.0,104.0,102.0,13.4,1505.2,324.8,-0.7,1.8,2469.036,13.29,0.012,298.6
2021-04-07T08:25:03,42.805,6.029,-0.018,-0.008,-0.004,104.0,102.0,101.0,13.3,1505.2,327.0,-0.8,1.8,2469.012,13.29,0.019,246.0
2021-04-07T08:28:03,42.805,6.029,0.005,0.001,0.033,102.0,105.0,101.0,13.4,1505.2,327.6,-0.8,1.8,2469.04,13.29,0.005,78.7
2021-04-07T08:31:03,42.805,6.029,-0.012,-0.017,0.034,104.0,104.0,101.0,13.4,1505.2,324.6,-0.7,1.9,2469.063,13.29,0.02,215.2
2021-04-07T08:34:03,42.805,6.029,0.0,-0.019,0.013,102.0,103.0,101.0,13.4,1505.2,325.1,-0.8,1.8,2469.082,13.29,0.019,180.0
2021-04-07T08:37:03,42.805,6.029,-0.001,-0.021,-0.011,103.0,103.0,102.0,13.4,1505.2,326.5,-0.7,1.8,2469.079,13.29,0.021,182.7
2021-04-07T08:40:03,42.805,6.029,-0.012,-0.01,0.033,102.0,104.0,102.0,13.3,1505.2,325.5,-0.8,1.8,2469.086,13.29,0.015,230.2
2021-04-07T08:43:03,42.805,6.029,-0.018,-0.006,-0.001,104.0,105.0,102.0,13.4,1505.2,327.3,-0.7,1.8,2469.1,13.29,0.018,251.6
2021-04-07T08:46:03,42.805,6.029,-0.015,-0.014,0.032,104.0,104.0,102.0,13.4,1505.2,326.9,-0.7,1.8,2469.085,13.29,0.02,227.0
2021-04-07T08:49:03,42.805,6.029,-0.009,-0.006,0.014,105.0,103.0,101.0,13.3,1505.2,327.5,-0.8,1.8,2469.092,13.29,0.01,236.3
2021-04-07T08:52:03,42.805,6.029,0.013,0.001,0.031,102.0,104.0,102.0,13.3,1505.2,325.1,-0.7,1.8,2469.16,13.29,0.013,85.6
2021-04-07T08:55:03,42.805,6.029,0.008,-0.011,0.016,103.0,104.0,102.0,13.4,1505.2,323.3,-0.7,1.9,2469.161,13.29,0.013,144.0
2021-04-07T08:58:03,42.805,6.029,-0.019,0.009,0.018,104.0,104.0,104.0,13.4,1505.2,327.7,-0.8,1.8,2469.18,13.29,0.021,295.3
2021-04-07T09:04:03,42.805,6.029,-0.008,-0.004,0.005,105.0,103.0,101.0,13.4,1505.2,325.8,-0.8,1.8,2469.211,13.29,0.008,243.4
2021-04-07T09:07:03,42.805,6.029,-0.002,-0.007,0.013,103.0,105.0,102.0,13.4,1505.2,325.6,-0.8,1.8,2469.196,13.29,0.007,195.9
2021-04-07T09:10:03,42.805,6.029,-0.002,-0.004,0.009,102.0,107.0,102.0,13.4,1505.2,323.5,-0.8,1.8,2469.183,13.29,0.004,206.6
2021-04-07T09:13:03,42.805,6.029,-0.007,0.014,0.02,103.0,105.0,102.0,13.4,1505.2,328.4,-0.8,1.8,2469.212,13.29,0.015,333.4
2021-04-07T09:16:03,42.805,6.029,0.006,-0.016,0.0,104.0,104.0,102.0,13.4,1505.2,325.8,-0.8,1.9,2469.209,13.29,0.017,159.4
2021-04-07T09:19:03,42.805,6.029,-0.024,-0.007,-0.002,105.0,105.0,105.0,13.4,1505.2,325.0,-0.8,1.8,2469.223,13.29,0.025,253.7
2021-04-07T09:22:03,42.805,6.029,-0.006,0.0,0.002,104.0,106.0,102.0,13.3,1505.2,326.6,-0.7,1.8,2469.223,13.29,0.006,270.0
2021-04-07T09:25:03,42.805,6.029,-0.02,-0.009,0.007,105.0,104.0,103.0,13.4,1505.2,328.9,-0.8,1.9,2469.161,13.29,0.021,245.8
2021-04-07T09:28:03,42.805,6.029,-0.012,-0.004,0.024,103.0,105.0,102.0,13.3,1505.2,328.7,-0.8,1.8,2469.21,13.29,0.012,251.6
2021-04-07T09:31:03,42.805,6.029,0.007,-0.011,0.007,106.0,104.0,101.0,13.4,1505.2,325.2,-0.8,1.8,2469.198,13.29,0.013,147.5
2021-04-07T09:34:03,42.805,6.029,-0.007,-0.007,0.006,102.0,105.0,103.0,13.3,1505.2,327.3,-0.7,1.8,2469.213,13.29,0.009,225.0
2021-04-07T09:37:03,42.805,6.029,-0.009,-0.007,-0.006,104.0,104.0,101.0,13.4,1505.2,327.4,-0.7,1.8,2469.213,13.29,0.011,232.1
2021-04-07T09:40:03,42.805,6.029,0.0,-0.02,0.013,102.0,103.0,103.0,13.4,1505.2,325.6,-0.8,1.9,2469.188,13.29,0.02,180.0
2021-04-07T09:43:03,42.805,6.029,-0.001,-0.018,0.006,105.0,103.0,101.0,13.4,1505.2,323.9,-0.8,1.8,2469.211,13.29,0.018,183.2
2021-04-07T09:46:03,42.805,6.029,-0.009,0.009,-0.005,106.0,104.0,102.0,13.4,1505.2,327.9,-0.8,1.8,2469.196,13.29,0.012,315.0
2021-04-07T09:49:03,42.805,6.029,-0.012,-0.014,-0.006,103.0,104.0,101.0,13.3,1505.2,328.0,-0.8,1.8,2469.183,13.29,0.018,220.6
2021-04-07T09:52:03,42.805,6.029,-0.019,-0.007,0.024,104.0,103.0,100.0,13.4,1505.2,327.2,-0.8,1.8,2469.157,13.29,0.02,249.8
2021-04-07T09:55:03,42.805,6.029,-0.013,-0.013,0.0,103.0,103.0,102.0,13.4,1505.2,324.5,-0.7,1.9,2469.187,13.29,0.018,225.0